SKN6203 SARI-SABE

Flight info

Callsign SKN6203
Flight time 1h 38m
Altitude 32000
Route NAIDE2C NAIDE UT667 GEMSU UN785 GUA UZ129 PAGON PAGON9R
Aircraft A21N/M-SDE2E3FGHIRWXY/LB1

Departure

Time 2026-05-03 20:47
Airport Cataratas Del Iguazú International Airport (SARI)

Arrival

Time 2026-05-03 22:26
Airport Aeroparque Jorge Newbery (SABE)
Time Latitude Longitude Altitude Speed Heading
2026-05-03 20:38 -25.73227 -54.47676 930 ft 1 kts 25°
2026-05-03 20:38 -25.73239 -54.47682 930 ft 4 kts 17°
2026-05-03 20:38 -25.73263 -54.47685 933 ft 4 kts 341°
2026-05-03 20:38 -25.73281 -54.47670 933 ft 2 kts 294°
2026-05-03 20:39 -25.73282 -54.47668 933 ft 1 kts 294°
2026-05-03 20:42 -25.73276 -54.47682 934 ft 4 kts 294°
2026-05-03 20:42 -25.73265 -54.47712 933 ft 4 kts 294°
2026-05-03 20:43 -25.73244 -54.47764 932 ft 10 kts 294°
2026-05-03 20:43 -25.73224 -54.47831 933 ft 8 kts 279°
2026-05-03 20:43 -25.73224 -54.47885 930 ft 6 kts 266°
2026-05-03 20:43 -25.73227 -54.47935 932 ft 7 kts 266°
2026-05-03 20:44 -25.73231 -54.47986 930 ft 7 kts 264°
2026-05-03 20:44 -25.73235 -54.48036 933 ft 7 kts 264°
2026-05-03 20:44 -25.73240 -54.48091 934 ft 8 kts 264°
2026-05-03 20:44 -25.73246 -54.48159 931 ft 9 kts 264°
2026-05-03 20:45 -25.73251 -54.48228 934 ft 9 kts 264°
2026-05-03 20:45 -25.73257 -54.48291 933 ft 8 kts 264°
2026-05-03 20:45 -25.73260 -54.48352 932 ft 9 kts 268°
2026-05-03 20:45 -25.73256 -54.48424 931 ft 10 kts 275°
2026-05-03 20:46 -25.73264 -54.48465 930 ft 1 kts 196°
2026-05-03 20:46 -25.73279 -54.48448 933 ft 8 kts 116°
2026-05-03 20:46 -25.73306 -54.48367 934 ft 11 kts 110°
2026-05-03 20:46 -25.73348 -54.48261 936 ft 33 kts 115°
2026-05-03 20:47 -25.73524 -54.47836 935 ft 88 kts 114°
2026-05-03 20:47 -25.73885 -54.46951 936 ft 162 kts 114°
2026-05-03 20:47 -25.74381 -54.45731 1441 ft 177 kts 114°
2026-05-03 20:47 -25.74908 -54.44452 2227 ft 185 kts 113°
2026-05-03 20:48 -25.75445 -54.43131 3040 ft 193 kts 112°
2026-05-03 20:48 -25.76070 -54.41728 3652 ft 221 kts 111°
2026-05-03 20:48 -25.76720 -54.40140 4250 ft 236 kts 122°
2026-05-03 20:48 -25.78006 -54.38877 4654 ft 264 kts 156°
2026-05-03 20:49 -25.79853 -54.38429 5288 ft 276 kts 175°
2026-05-03 20:49 -25.81798 -54.38300 5996 ft 282 kts 177°
2026-05-03 20:49 -25.83780 -54.38201 6731 ft 287 kts 178°
2026-05-03 20:49 -25.85760 -54.38086 7465 ft 290 kts 178°
2026-05-03 20:50 -25.87809 -54.37952 8248 ft 293 kts 178°
2026-05-03 20:50 -25.89819 -54.37811 8993 ft 296 kts 178°
2026-05-03 20:50 -25.91892 -54.37659 9762 ft 299 kts 178°
2026-05-03 20:50 -25.93984 -54.37503 10437 ft 305 kts 179°
2026-05-03 20:51 -25.96162 -54.37341 10789 ft 323 kts 179°
2026-05-03 20:51 -25.98474 -54.37168 11084 ft 341 kts 179°
2026-05-03 20:51 -26.00913 -54.36984 11394 ft 358 kts 179°
2026-05-03 20:51 -26.03447 -54.36790 11652 ft 373 kts 179°
2026-05-03 20:52 -26.06027 -54.36592 11933 ft 384 kts 179°
2026-05-03 20:52 -26.08724 -54.36384 12399 ft 390 kts 179°
2026-05-03 20:52 -26.11444 -54.36174 12935 ft 394 kts 179°
2026-05-03 20:52 -26.14183 -54.35962 13463 ft 397 kts 179°
2026-05-03 20:53 -26.16023 -54.35820 13824 ft 399 kts 179°
2026-05-03 20:53 -26.18801 -54.35605 14319 ft 402 kts 179°
2026-05-03 20:53 -26.21566 -54.35392 14815 ft 404 kts 180°
2026-05-03 20:53 -26.24375 -54.35243 15316 ft 403 kts 187°
2026-05-03 20:54 -26.27110 -54.35819 15798 ft 398 kts 200°
2026-05-03 20:54 -26.32350 -54.37762 16778 ft 399 kts 203°
2026-05-03 20:54 -26.35026 -54.38782 17252 ft 401 kts 203°
2026-05-03 20:55 -26.37653 -54.39774 17656 ft 403 kts 203°
2026-05-03 20:55 -26.40325 -54.40776 18055 ft 405 kts 203°
2026-05-03 20:55 -26.42984 -54.41769 18425 ft 407 kts 203°
2026-05-03 20:55 -26.45676 -54.42772 18723 ft 408 kts 203°
2026-05-03 20:56 -26.48360 -54.43771 19047 ft 409 kts 203°
2026-05-03 20:56 -26.51065 -54.44778 19346 ft 410 kts 203°
2026-05-03 20:56 -26.53782 -54.45790 19675 ft 412 kts 203°
2026-05-03 20:56 -26.56524 -54.46812 20000 ft 413 kts 203°
2026-05-03 20:57 -26.59262 -54.47833 20342 ft 414 kts 203°
2026-05-03 20:57 -26.61936 -54.48830 20696 ft 416 kts 203°
2026-05-03 20:57 -26.64704 -54.49862 21080 ft 417 kts 203°
2026-05-03 20:57 -26.67482 -54.50900 21485 ft 418 kts 204°
2026-05-03 20:58 -26.70178 -54.52075 21882 ft 416 kts 210°
2026-05-03 20:58 -26.72723 -54.53636 22307 ft 414 kts 216°
2026-05-03 20:58 -26.75146 -54.55359 22745 ft 415 kts 217°
2026-05-03 20:58 -26.77574 -54.57132 23198 ft 416 kts 218°
2026-05-03 20:59 -26.80005 -54.58914 23606 ft 418 kts 218°
2026-05-03 20:59 -26.82451 -54.60705 23933 ft 420 kts 217°
2026-05-03 20:59 -26.84910 -54.62502 24251 ft 422 kts 217°
2026-05-03 20:59 -26.87338 -54.64277 24602 ft 423 kts 217°
2026-05-03 21:00 -26.89812 -54.66084 24956 ft 424 kts 218°
2026-05-03 21:00 -26.91484 -54.67306 25188 ft 425 kts 218°
2026-05-03 21:00 -26.94783 -54.69718 25596 ft 426 kts 218°
2026-05-03 21:00 -26.97263 -54.71533 25915 ft 427 kts 218°
2026-05-03 21:01 -26.99759 -54.73361 26253 ft 428 kts 218°
2026-05-03 21:01 -27.02231 -54.75170 26550 ft 429 kts 218°
2026-05-03 21:01 -27.04768 -54.77030 26818 ft 431 kts 218°
2026-05-03 21:01 -27.07244 -54.78844 27240 ft 429 kts 218°
2026-05-03 21:02 -27.09730 -54.80666 27719 ft 426 kts 218°
2026-05-03 21:02 -27.12204 -54.82480 28160 ft 423 kts 218°
2026-05-03 21:02 -27.14673 -54.84294 28521 ft 423 kts 218°
2026-05-03 21:02 -27.17129 -54.86100 28867 ft 422 kts 218°
2026-05-03 21:03 -27.19589 -54.87908 29262 ft 421 kts 218°
2026-05-03 21:03 -27.22009 -54.89688 29624 ft 419 kts 219°
2026-05-03 21:03 -27.24438 -54.91476 30020 ft 418 kts 219°
2026-05-03 21:03 -27.26860 -54.93258 30411 ft 415 kts 219°
2026-05-03 21:04 -27.29290 -54.95048 30735 ft 414 kts 219°
2026-05-03 21:04 -27.31624 -54.96908 31027 ft 409 kts 224°
2026-05-03 21:04 -27.33706 -54.99072 31351 ft 403 kts 232°
2026-05-03 21:04 -27.35409 -55.01483 31670 ft 397 kts 240°
2026-05-03 21:05 -27.36811 -55.04180 31990 ft 394 kts 244°
2026-05-03 21:05 -27.38058 -55.06896 32082 ft 394 kts 245°
2026-05-03 21:05 -27.40517 -55.12379 32083 ft 393 kts 245°
2026-05-03 21:06 -27.42983 -55.17867 32086 ft 393 kts 245°
2026-05-03 21:06 -27.45468 -55.23386 32087 ft 394 kts 245°
2026-05-03 21:07 -27.47948 -55.28899 32086 ft 394 kts 245°
2026-05-03 21:07 -27.50420 -55.34397 32084 ft 394 kts 245°
2026-05-03 21:08 -27.52880 -55.39877 32082 ft 394 kts 245°
2026-05-03 21:08 -27.55354 -55.45396 32076 ft 394 kts 245°
2026-05-03 21:09 -27.57827 -55.50921 32084 ft 395 kts 245°
2026-05-03 21:09 -27.60448 -55.56334 32082 ft 397 kts 238°
2026-05-03 21:10 -27.64282 -55.60917 32083 ft 406 kts 222°
2026-05-03 21:10 -27.68887 -55.64570 32080 ft 409 kts 219°
2026-05-03 21:11 -27.73659 -55.68096 32072 ft 409 kts 219°
2026-05-03 21:11 -27.78406 -55.71604 32075 ft 409 kts 219°
2026-05-03 21:12 -27.83159 -55.75159 32078 ft 409 kts 219°
2026-05-03 21:12 -27.87904 -55.78732 32088 ft 409 kts 219°
2026-05-03 21:13 -27.92644 -55.82309 32084 ft 409 kts 219°
2026-05-03 21:13 -27.97347 -55.85861 32078 ft 409 kts 219°
2026-05-03 21:14 -28.02089 -55.89446 32083 ft 409 kts 219°
2026-05-03 21:14 -28.06826 -55.93029 32079 ft 409 kts 219°
2026-05-03 21:15 -28.11554 -55.96610 32080 ft 409 kts 219°
2026-05-03 21:15 -28.16306 -56.00212 32079 ft 409 kts 219°
2026-05-03 21:16 -28.21026 -56.03795 32101 ft 409 kts 219°
2026-05-03 21:16 -28.25781 -56.07409 32081 ft 410 kts 219°
2026-05-03 21:17 -28.29731 -56.10413 32085 ft 410 kts 219°
2026-05-03 21:17 -28.35234 -56.14602 32084 ft 411 kts 219°
2026-05-03 21:18 -28.39971 -56.18213 32088 ft 411 kts 219°
2026-05-03 21:18 -28.44710 -56.21829 32088 ft 410 kts 219°
2026-05-03 21:19 -28.49471 -56.25467 32086 ft 410 kts 219°
2026-05-03 21:19 -28.54185 -56.29072 32094 ft 411 kts 219°
2026-05-03 21:20 -28.58933 -56.32709 32089 ft 411 kts 219°
2026-05-03 21:20 -28.63694 -56.36357 32090 ft 411 kts 219°
2026-05-03 21:21 -28.68445 -56.40002 32093 ft 411 kts 219°
2026-05-03 21:21 -28.73181 -56.43641 32092 ft 411 kts 219°
2026-05-03 21:22 -28.77903 -56.47272 32093 ft 411 kts 219°
2026-05-03 21:22 -28.82633 -56.50914 32093 ft 411 kts 219°
2026-05-03 21:23 -28.87363 -56.54561 32097 ft 411 kts 219°
2026-05-03 21:23 -28.92100 -56.58217 32093 ft 411 kts 219°
2026-05-03 21:24 -28.96845 -56.61882 32098 ft 411 kts 219°
2026-05-03 21:24 -29.01595 -56.65554 32095 ft 411 kts 219°
2026-05-03 21:25 -29.06339 -56.69227 32099 ft 411 kts 219°
2026-05-03 21:25 -29.11053 -56.72882 32098 ft 411 kts 219°
2026-05-03 21:26 -29.15795 -56.76562 32112 ft 411 kts 218°
2026-05-03 21:26 -29.20528 -56.80239 32104 ft 412 kts 218°
2026-05-03 21:27 -29.25236 -56.83901 32102 ft 412 kts 218°
2026-05-03 21:27 -29.29971 -56.87588 32103 ft 411 kts 218°
2026-05-03 21:28 -29.34713 -56.91284 32101 ft 411 kts 218°
2026-05-03 21:28 -29.39410 -56.94950 32105 ft 411 kts 218°
2026-05-03 21:29 -29.44150 -56.98654 32106 ft 411 kts 218°
2026-05-03 21:29 -29.48849 -57.02329 32104 ft 411 kts 218°
2026-05-03 21:30 -29.53593 -57.06045 32105 ft 411 kts 218°
2026-05-03 21:30 -29.58284 -57.09722 32103 ft 411 kts 218°
2026-05-03 21:31 -29.63009 -57.13432 32101 ft 410 kts 218°
2026-05-03 21:31 -29.67724 -57.17138 32101 ft 410 kts 218°
2026-05-03 21:32 -29.72417 -57.20830 32111 ft 410 kts 218°
2026-05-03 21:32 -29.77131 -57.24543 32125 ft 409 kts 217°
2026-05-03 21:33 -29.81827 -57.28247 32109 ft 409 kts 217°
2026-05-03 21:33 -29.86508 -57.31942 32111 ft 409 kts 217°
2026-05-03 21:34 -29.91206 -57.35655 32113 ft 409 kts 217°
2026-05-03 21:34 -29.95905 -57.39374 32112 ft 409 kts 217°
2026-05-03 21:35 -30.00574 -57.43073 32110 ft 408 kts 217°
2026-05-03 21:35 -30.05255 -57.46785 32114 ft 408 kts 217°
2026-05-03 21:36 -30.09927 -57.50496 32114 ft 407 kts 217°
2026-05-03 21:36 -30.14596 -57.54207 32115 ft 407 kts 217°
2026-05-03 21:37 -30.19275 -57.57932 32115 ft 407 kts 217°
2026-05-03 21:37 -30.23915 -57.61625 32111 ft 407 kts 215°
2026-05-03 21:38 -30.28128 -57.64171 32118 ft 411 kts 204°
2026-05-03 21:38 -30.34448 -57.66607 32117 ft 412 kts 200°
2026-05-03 21:39 -30.39040 -57.68194 32119 ft 412 kts 200°
2026-05-03 21:39 -30.45447 -57.70385 32115 ft 411 kts 200°
2026-05-03 21:40 -30.50032 -57.71972 32116 ft 411 kts 200°
2026-05-03 21:40 -30.55476 -57.73872 32115 ft 411 kts 200°
2026-05-03 21:41 -30.60947 -57.75788 32119 ft 411 kts 200°
2026-05-03 21:41 -30.66434 -57.77711 32119 ft 411 kts 200°
2026-05-03 21:42 -30.71928 -57.79634 32119 ft 411 kts 200°
2026-05-03 21:42 -30.77364 -57.81528 32119 ft 411 kts 200°
2026-05-03 21:43 -30.82841 -57.83435 32118 ft 411 kts 200°
2026-05-03 21:43 -30.88349 -57.85357 32118 ft 411 kts 200°
2026-05-03 21:44 -30.93777 -57.87254 32119 ft 411 kts 200°
2026-05-03 21:44 -30.99254 -57.89171 32116 ft 411 kts 200°
2026-05-03 21:45 -31.04731 -57.91090 32113 ft 411 kts 200°
2026-05-03 21:45 -31.10201 -57.93008 32106 ft 411 kts 200°
2026-05-03 21:46 -31.15677 -57.94931 32106 ft 411 kts 200°
2026-05-03 21:46 -31.21159 -57.96859 32101 ft 411 kts 200°
2026-05-03 21:47 -31.26621 -57.98782 32103 ft 411 kts 200°
2026-05-03 21:47 -31.32097 -58.00712 32103 ft 411 kts 200°
2026-05-03 21:48 -31.37551 -58.02637 32103 ft 411 kts 200°
2026-05-03 21:48 -31.43071 -58.04587 32111 ft 411 kts 200°
2026-05-03 21:49 -31.48545 -58.06523 32104 ft 411 kts 200°
2026-05-03 21:49 -31.53975 -58.08447 32105 ft 411 kts 200°
2026-05-03 21:50 -31.59455 -58.10390 32107 ft 411 kts 200°
2026-05-03 21:50 -31.64921 -58.12331 32119 ft 411 kts 200°
2026-05-03 21:51 -31.70439 -58.14293 32117 ft 411 kts 200°
2026-05-03 21:51 -31.75874 -58.16227 32111 ft 410 kts 200°
2026-05-03 21:52 -31.81332 -58.18172 32114 ft 410 kts 200°
2026-05-03 21:52 -31.86812 -58.20128 32112 ft 410 kts 200°
2026-05-03 21:53 -31.92274 -58.22079 32113 ft 409 kts 200°
2026-05-03 21:53 -31.97698 -58.24019 32115 ft 409 kts 201°
2026-05-03 21:54 -32.03177 -58.25982 32109 ft 410 kts 201°
2026-05-03 21:54 -32.08618 -58.27933 32111 ft 410 kts 201°
2026-05-03 21:55 -32.14065 -58.29889 32114 ft 410 kts 201°
2026-05-03 21:55 -32.19509 -58.31846 32105 ft 410 kts 201°
2026-05-03 21:56 -32.24962 -58.33809 32105 ft 410 kts 201°
2026-05-03 21:56 -32.30444 -58.35785 32109 ft 410 kts 201°
2026-05-03 21:57 -32.35856 -58.37737 32103 ft 410 kts 201°
2026-05-03 21:57 -32.41314 -58.39708 32104 ft 410 kts 201°
2026-05-03 21:58 -32.46780 -58.41683 32118 ft 410 kts 201°
2026-05-03 21:58 -32.52211 -58.43649 32107 ft 410 kts 201°
2026-05-03 21:59 -32.57672 -58.45628 32108 ft 410 kts 201°
2026-05-03 21:59 -32.63116 -58.47604 32107 ft 410 kts 201°
2026-05-03 22:00 -32.68573 -58.49587 32104 ft 409 kts 201°
2026-05-03 22:00 -32.74013 -58.51566 32098 ft 409 kts 201°
2026-05-03 22:01 -32.79448 -58.53546 32100 ft 409 kts 201°
2026-05-03 22:01 -32.84882 -58.55528 32101 ft 409 kts 201°
2026-05-03 22:02 -32.90319 -58.57514 32101 ft 409 kts 201°
2026-05-03 22:02 -32.95780 -58.59511 32102 ft 409 kts 201°
2026-05-03 22:03 -33.01243 -58.61285 32102 ft 414 kts 194°
2026-05-03 22:03 -33.07004 -58.62090 32091 ft 416 kts 191°
2026-05-03 22:04 -33.12788 -58.62777 32092 ft 417 kts 191°
2026-05-03 22:04 -33.18572 -58.63451 32091 ft 417 kts 191°
2026-05-03 22:05 -33.24304 -58.64115 32093 ft 417 kts 191°
2026-05-03 22:05 -33.30093 -58.64790 32088 ft 418 kts 191°
2026-05-03 22:06 -33.32991 -58.65126 31977 ft 415 kts 191°
2026-05-03 22:06 -33.35858 -58.65461 31733 ft 418 kts 191°
2026-05-03 22:06 -33.38741 -58.65798 31490 ft 420 kts 191°
2026-05-03 22:06 -33.41679 -58.66141 31238 ft 422 kts 191°
2026-05-03 22:07 -33.44600 -58.66482 31004 ft 423 kts 191°
2026-05-03 22:07 -33.47551 -58.66826 30787 ft 425 kts 191°
2026-05-03 22:07 -33.50480 -58.67169 30538 ft 426 kts 191°
2026-05-03 22:07 -33.53453 -58.67516 30297 ft 427 kts 191°
2026-05-03 22:08 -33.56424 -58.67863 30050 ft 428 kts 191°
2026-05-03 22:08 -33.59357 -58.68207 29775 ft 429 kts 191°
2026-05-03 22:08 -33.62335 -58.68555 29490 ft 430 kts 191°
2026-05-03 22:08 -33.65316 -58.68905 29215 ft 432 kts 191°
2026-05-03 22:09 -33.68329 -58.69258 28986 ft 433 kts 191°
2026-05-03 22:09 -33.71316 -58.69600 28714 ft 435 kts 191°
2026-05-03 22:09 -33.74343 -58.69930 28446 ft 436 kts 190°
2026-05-03 22:10 -33.80432 -58.70578 27494 ft 440 kts 190°
2026-05-03 22:10 -33.83455 -58.70901 26253 ft 446 kts 190°
2026-05-03 22:10 -33.86628 -58.71242 25201 ft 451 kts 189°
2026-05-03 22:10 -33.89754 -58.71252 24193 ft 458 kts 182°
2026-05-03 22:11 -33.92947 -58.70964 23173 ft 461 kts 180°
2026-05-03 22:11 -33.96116 -58.70581 22351 ft 456 kts 179°
2026-05-03 22:11 -33.99278 -58.70164 21487 ft 452 kts 179°
2026-05-03 22:11 -34.02355 -58.69744 20691 ft 447 kts 178°
2026-05-03 22:12 -34.05408 -58.69320 19879 ft 443 kts 178°
2026-05-03 22:12 -34.08489 -58.68888 19084 ft 438 kts 178°
2026-05-03 22:12 -34.11506 -58.68463 18287 ft 434 kts 178°
2026-05-03 22:12 -34.14490 -58.68041 17414 ft 430 kts 178°
2026-05-03 22:13 -34.17459 -58.67620 16569 ft 426 kts 178°
2026-05-03 22:13 -34.20374 -58.67207 15709 ft 423 kts 178°
2026-05-03 22:13 -34.23284 -58.66793 14895 ft 419 kts 177°
2026-05-03 22:13 -34.26191 -58.66380 14076 ft 415 kts 177°
2026-05-03 22:14 -34.29009 -58.65979 13253 ft 412 kts 177°
2026-05-03 22:14 -34.31854 -58.65574 12381 ft 408 kts 177°
2026-05-03 22:14 -34.34652 -58.65174 11618 ft 403 kts 177°
2026-05-03 22:14 -34.37434 -58.64776 10979 ft 396 kts 177°
2026-05-03 22:15 -34.40065 -58.64397 10831 ft 376 kts 177°
2026-05-03 22:15 -34.42607 -58.64029 10731 ft 355 kts 177°
2026-05-03 22:15 -34.44987 -58.63685 10622 ft 337 kts 178°
2026-05-03 22:15 -34.47258 -58.63358 10485 ft 321 kts 177°
2026-05-03 22:16 -34.49425 -58.63048 10337 ft 308 kts 178°
2026-05-03 22:16 -34.51538 -58.62748 9967 ft 303 kts 178°
2026-05-03 22:16 -34.53628 -58.62454 9492 ft 302 kts 178°
2026-05-03 22:16 -34.55714 -58.62158 9088 ft 297 kts 178°
2026-05-03 22:17 -34.57757 -58.61863 8756 ft 293 kts 176°
2026-05-03 22:17 -34.59707 -58.61208 8433 ft 293 kts 152°
2026-05-03 22:17 -34.61257 -58.59657 8250 ft 285 kts 133°
2026-05-03 22:17 -34.62410 -58.57784 8027 ft 278 kts 122°
2026-05-03 22:18 -34.63319 -58.55734 7708 ft 275 kts 115°
2026-05-03 22:18 -34.64061 -58.53596 7359 ft 274 kts 110°
2026-05-03 22:18 -34.64700 -58.51416 7019 ft 272 kts 108°
2026-05-03 22:18 -34.65267 -58.49261 6707 ft 270 kts 106°
2026-05-03 22:19 -34.65806 -58.47079 6375 ft 268 kts 106°
2026-05-03 22:19 -34.66324 -58.44906 6031 ft 265 kts 105°
2026-05-03 22:19 -34.66831 -58.42736 5648 ft 265 kts 104°
2026-05-03 22:19 -34.67325 -58.40592 5309 ft 262 kts 104°
2026-05-03 22:20 -34.67807 -58.38491 4990 ft 260 kts 104°
2026-05-03 22:20 -34.68287 -58.36387 4667 ft 258 kts 104°
2026-05-03 22:20 -34.68761 -58.34303 4346 ft 256 kts 103°
2026-05-03 22:20 -34.69236 -58.32211 4043 ft 253 kts 103°
2026-05-03 22:21 -34.69701 -58.30159 3846 ft 252 kts 103°
2026-05-03 22:21 -34.70121 -58.28088 3747 ft 252 kts 94°
2026-05-03 22:21 -34.70158 -58.25989 3655 ft 245 kts 73°
2026-05-03 22:21 -34.69402 -58.24251 3338 ft 228 kts 35°
2026-05-03 22:22 -34.68045 -58.23557 3142 ft 204 kts
2026-05-03 22:22 -34.66663 -58.23626 2801 ft 197 kts 343°
2026-05-03 22:22 -34.65494 -58.24403 2531 ft 195 kts 318°
2026-05-03 22:22 -34.64637 -58.25713 2307 ft 201 kts 308°
2026-05-03 22:23 -34.63874 -58.27129 2075 ft 200 kts 306°
2026-05-03 22:23 -34.63119 -58.28554 1999 ft 199 kts 307°
2026-05-03 22:23 -34.62363 -58.29974 1719 ft 198 kts 307°
2026-05-03 22:23 -34.61618 -58.31343 1442 ft 198 kts 307°
2026-05-03 22:24 -34.60844 -58.32745 1284 ft 197 kts 308°
2026-05-03 22:24 -34.60114 -58.34098 1067 ft 183 kts 308°
2026-05-03 22:24 -34.59456 -58.35326 860 ft 165 kts 309°
2026-05-03 22:24 -34.58818 -58.36397 726 ft 150 kts 309°
2026-05-03 22:25 -34.58263 -58.37390 552 ft 136 kts 308°
2026-05-03 22:25 -34.57750 -58.38332 472 ft 134 kts 306°
2026-05-03 22:25 -34.57240 -58.39269 364 ft 134 kts 307°
2026-05-03 22:25 -34.56712 -58.40162 151 ft 129 kts 306°
2026-05-03 22:26 -34.56211 -58.41060 37 ft 127 kts 306°
2026-05-03 22:26 -34.55790 -58.41813 28 ft 83 kts 303°
2026-05-03 22:26 -34.55621 -58.42122 30 ft 48 kts 301°
2026-05-03 22:26 -34.55473 -58.42394 31 ft 35 kts 307°
2026-05-03 22:27 -34.55365 -58.42484 30 ft 2 kts 52°
2026-05-03 22:27 -34.55364 -58.42477 30 ft 1 kts 78°
2026-05-03 22:27 -34.55363 -58.42439 29 ft 5 kts 94°
2026-05-03 22:27 -34.55367 -58.42392 30 ft 5 kts 101°
2026-05-03 22:28 -34.55377 -58.42353 30 ft 3 kts 116°
2026-05-03 22:28 -34.55389 -58.42332 30 ft 3 kts 124°
2026-05-03 22:28 -34.55418 -58.42288 30 ft 17 kts 128°
2026-05-03 22:28 -34.55496 -58.42165 30 ft 18 kts 126°
2026-05-03 22:29 -34.55572 -58.42040 30 ft 18 kts 126°
2026-05-03 22:29 -34.55646 -58.41911 30 ft 19 kts 124°
2026-05-03 22:29 -34.55717 -58.41770 29 ft 20 kts 121°
2026-05-03 22:29 -34.55783 -58.41631 30 ft 19 kts 117°
2026-05-03 22:30 -34.55844 -58.41488 30 ft 19 kts 117°
2026-05-03 22:30 -34.55900 -58.41344 30 ft 15 kts 102°
2026-05-03 22:30 -34.55880 -58.41291 30 ft 4 kts 27°
2026-05-03 22:30 -34.55856 -58.41284 30 ft 5 kts 13°
2026-05-03 22:31 -34.55827 -58.41267 30 ft 4 kts 34°
2026-05-03 22:31 -34.55808 -58.41250 30 ft 0 kts 38°
2026-05-03 22:31 -34.55807 -58.41249 30 ft 0 kts 38°
2026-05-03 22:31 -34.55807 -58.41248 30 ft 1 kts 38°
2026-05-03 22:32 -34.55806 -58.41247 30 ft 0 kts 38°